1513663200.07,948,5.69,73220.5,-17.89,-48.97,-48.83,0,*67
1513663201.33,949,5.69,73220.0,-17.87,-48.77,-48.69,0,*62
1513663202.53,950,5.69,73224.3,-17.87,-48.97,-48.97,0,*65
1513663203.79,951,5.69,73222.0,-17.87,-48.77,-48.77,0,*64
1513663205.01,952,5.69,73226.5,-17.85,-48.55,-48.49,0,*68
1513663206.26,953,5.69,73222.5,-17.85,-48.55,-48.35,0,*62
1513663207.5,954,5.69,73226.8,-17.85,-48.91,-48.97,0,*65
1513663208.78,955,5.69,73224.0,-17.85,-48.91,-48.69,0,*65
1513663210.0,956,5.69,73226.5,-17.85,-48.49,-48.49,0,*61
1513663211.28,957,5.69,73224.8,-17.85,-48.77,-48.69,0,*6F
1513663212.5,958,5.69,73222.5,-17.85,-48.55,-48.49,0,*62
1513663213.72,959,5.69,73224.5,-17.85,-48.49,-48.49,0,*6E
1513663215.01,960,5.69,73222.0,-17.85,-48.69,-48.69,0,*64
1513663216.29,961,5.69,73220.5,-17.85,-48.77,-48.77,0,*65
1513663217.56,962,5.69,73214.0,-17.85,-48.77,-48.77,0,*66
1513663218.85,963,5.69,73214.3,-17.85,-48.69,-48.77,0,*68
1513663220.13,964,5.69,73218.5,-17.85,-48.77,-48.77,0,*60
1513663221.41,965,5.69,73218.3,-17.85,-49.19,-49.11,0,*69
1513663222.65,966,5.69,73218.3,-17.85,-49.25,-49.19,0,*6D
1513663223.92,967,5.69,73218.0,-17.85,-49.47,-49.19,0,*68
1513663225.2,968,5.69,73214.0,-17.85,-49.61,-49.39,0,*61
1513663226.48,969,5.69,73218.5,-17.85,-49.19,-49.11,0,*65
1513663227.73,970,5.69,73218.3,-17.85,-49.47,-49.25,0,*61
1513663228.97,971,5.69,73216.3,-17.85,-49.25,-49.19,0,*6B
1513663230.22,972,5.69,73218.0,-17.85,-48.97,-48.91,0,*61
1513663231.5,973,5.69,73216.5,-17.85,-48.77,-48.69,0,*69
1513663232.78,974,5.69,73212.0,-17.85,-48.77,-48.77,0,*61
1513663233.98,975,5.69,73214.8,-17.83,-48.83,-48.83,0,*66
1513663235.24,976,5.69,73218.5,-17.83,-49.11,-49.11,0,*65
1513663236.49,977,5.69,73216.3,-17.85,-49.11,-48.97,0,*6D
1513663237.74,978,5.69,73216.0,-17.85,-49.19,-48.97,0,*6A
1513663238.98,979,5.69,73218.5,-17.85,-48.97,-48.91,0,*6A
1513663240.26,980,5.69,73218.5,-17.85,-48.77,-48.77,0,*6A
1513663241.51,981,5.69,73220.0,-17.85,-49.19,-48.97,0,*6C
1513663242.76,982,5.69,73222.8,-17.85,-49.25,-49.11,0,*6F
1513663244.02,983,5.69,73222.3,-17.83,-49.19,-49.11,0,*67
1513663245.26,984,5.69,73220.8,-17.83,-49.19,-49.05,0,*65
1513663246.49,985,5.69,73220.5,-17.83,-48.83,-48.69,0,*6D
1513663247.74,986,5.69,73220.0,-17.85,-49.11,-48.97,0,*63
1513663249.01,987,5.69,73226.0,-17.85,-49.11,-48.91,0,*64
1513663250.29,988,5.69,73222.0,-17.85,-48.91,-48.77,0,*6A
1513663251.5,989,5.69,73218.0,-17.85,-48.97,-48.97,0,*63
1513663252.75,990,5.69,73218.0,-17.85,-49.11,-48.97,0,*64
1513663254.0,991,5.69,73220.8,-17.85,-49.19,-48.97,0,*6D
1513663255.25,992,5.69,73216.5,-17.85,-49.39,-49.25,0,*64
1513663256.48,993,5.69,73220.5,-17.83,-49.33,-49.19,0,*66
1513663257.69,994,5.69,73216.8,-17.83,-49.05,-48.83,0,*66
1513663258.96,995,5.69,73220.8,-17.85,-49.61,-49.39,0,*63
1513663260.22,996,5.69,73218.5,-17.83,-49.39,-49.19,0,*69
1513663261.49,997,5.69,73220.3,-17.85,-49.47,-49.47,0,*6C
1513663262.74,998,5.69,73222.5,-17.85,-49.47,-49.25,0,*67
1513663263.99,999,5.69,73222.5,-17.85,-49.47,-49.25,0,*66
1513663265.24,1000,5.69,73224.0,-17.85,-49.11,-48.97,0,*55
1513663266.49,1001,5.69,73220.8,-17.85,-49.25,-49.19,0,*54
1513663267.77,1002,5.69,73222.0,-17.85,-49.19,-49.19,0,*58
1513663269.05,1003,5.69,73224.3,-17.85,-49.19,-49.19,0,*59
1513663270.31,1004,5.69,73224.3,-17.85,-49.19,-48.97,0,*59
1513663271.56,1005,5.69,73224.3,-17.85,-49.19,-48.97,0,*58
1513663272.78,1006,5.69,73222.5,-17.85,-49.25,-49.25,0,*5C
1513663274.04,1007,5.69,73222.3,-17.85,-49.11,-48.97,0,*52
1513663275.3,1008,5.69,73222.8,-17.85,-49.25,-49.11,0,*55
1513663276.55,1009,5.69,73222.5,-17.85,-49.39,-49.25,0,*5E
1513663277.84,1010,5.69,73222.0,-17.85,-49.19,-49.11,0,*53
1513663279.13,1011,5.69,73220.5,-17.85,-49.11,-49.11,0,*5A
1513663280.38,1012,5.69,73226.3,-17.85,-49.25,-49.19,0,*56
1513663281.6,1013,5.69,73224.5,-17.85,-48.97,-48.97,0,*58
1513663282.86,1014,5.69,73224.8,-17.85,-49.25,-49.11,0,*58
1513663284.14,1015,5.69,73226.0,-17.85,-49.11,-49.11,0,*5E
1513663285.43,1016,5.69,73226.8,-17.85,-49.19,-49.19,0,*5D
1513663286.65,1017,5.69,73226.0,-17.85,-49.25,-49.25,0,*5C
1513663287.93,1018,5.69,73224.3,-17.85,-49.61,-49.39,0,*5E
1513663289.22,1019,5.69,73226.3,-17.85,-48.91,-48.69,0,*55
1513663290.44,1020,5.69,73224.3,-17.85,-48.97,-48.97,0,*58
1513663291.69,1021,5.69,73224.0,-17.85,-49.25,-49.19,0,*56
1513663292.97,1022,5.69,73224.3,-17.85,-49.19,-49.19,0,*5A
1513663294.23,1023,5.69,73220.8,-17.85,-49.25,-49.11,0,*5C
1513663295.46,1024,5.69,73222.8,-17.83,-48.91,-48.83,0,*59
1513663296.75,1025,5.69,73222.3,-17.79,-48.77,-48.77,0,*5E
1513663298.01,1026,5.69,73222.5,-17.85,-48.69,-48.97,0,*5F
1513663299.26,1027,5.69,73224.3,-17.85,-49.19,-48.97,0,*58
1513663300.51,1028,5.69,73222.0,-17.85,-49.25,-49.19,0,*5F
1513663301.8,1029,5.69,73216.0,-17.85,-49.19,-49.11,0,*59
1513663303.06,1030,5.69,73218.8,-17.85,-49.47,-49.25,0,*5D
1513663304.34,1031,5.69,73218.0,-17.85,-49.61,-49.39,0,*55
1513663305.61,1032,5.69,73218.0,-17.85,-49.61,-49.47,0,*5F
1513663306.87,1033,5.69,73220.8,-17.85,-49.39,-49.25,0,*57
1513663308.12,1034,5.69,73220.0,-17.85,-49.47,-49.25,0,*59
1513663309.41,1035,5.69,73220.3,-17.85,-49.47,-49.39,0,*55
1513663310.65,1036,5.69,73220.5,-17.83,-49.53,-49.33,0,*5F
1513663311.89,1037,5.69,73220.5,-17.83,-49.39,-49.33,0,*52
1513663313.17,1038,5.69,73220.5,-17.85,-49.47,-49.39,0,*58
1513663314.45,1039,5.69,73220.8,-17.85,-49.61,-49.47,0,*54
1513663315.71,1040,5.69,73220.5,-17.85,-49.39,-49.25,0,*53
1513663316.96,1041,5.69,73220.8,-17.85,-49.39,-49.25,0,*52
1513663318.21,1042,5.69,73216.3,-17.85,-49.25,-49.19,0,*53
1513663319.5,1043,5.69,73220.5,-17.85,-49.47,-49.39,0,*54
1513663320.77,1044,5.69,73218.8,-17.85,-49.61,-49.47,0,*5E
1513663322.03,1045,5.69,73222.0,-17.85,-49.25,-49.11,0,*5C
1513663323.28,1046,5.69,73218.3,-17.85,-49.19,-48.97,0,*5F
1513663324.56,1047,5.69,73220.0,-17.85,-49.47,-49.19,0,*52
1513663325.85,1048,5.69,73220.8,-17.85,-49.39,-49.39,0,*56
1513663327.13,1049,5.69,73222.3,-17.85,-49.39,-49.39,0,*57
1513663328.41,1050,5.69,73224.3,-17.85,-49.61,-49.39,0,*52
1513663329.69,1051,5.69,73226.5,-17.85,-49.61,-49.39,0,*53
1513663330.94,1052,5.69,73228.3,-17.85,-49.25,-49.19,0,*52
1513663332.17,1053,5.69,73226.3,-17.85,-48.97,-48.97,0,*5C
1513663333.42,1054,5.69,73224.5,-17.85,-48.97,-48.91,0,*5D
1513663334.67,1055,5.69,73222.3,-17.85,-48.97,-49.11,0,*55
1513663335.9,1056,5.69,73220.5,-17.85,-49.25,-49.25,0,*59
1513663337.15,1057,5.69,73220.5,-17.85,-49.25,-49.19,0,*57
1513663338.37,1058,5.69,73220.5,-17.85,-48.97,-48.97,0,*57
1513663339.63,1059,5.69,73220.8,-17.85,-49.11,-48.97,0,*59
1513663340.88,1060,5.69,73222.5,-17.85,-49.19,-48.97,0,*5B
1513663342.14,1061,5.69,73220.0,-17.85,-49.25,-49.11,0,*5A
1513663343.42,1062,5.69,73220.0,-17.85,-49.61,-49.39,0,*53
1513663344.7,1063,5.69,73216.8,-17.85,-49.47,-49.47,0,*5F
1513663345.97,1064,5.69,73222.3,-17.85,-49.61,-49.47,0,*5C
1513663347.24,1065,5.69,73224.3,-17.85,-49.61,-49.61,0,*59
1513663348.51,1066,5.69,73220.3,-17.85,-49.61,-49.61,0,*5A
1513663349.77,1067,5.69,73226.0,-17.85,-49.39,-49.25,0,*56
1513663351.02,1068,5.69,73224.0,-17.85,-49.25,-49.19,0,*5B
1513663352.27,1069,5.69,73226.5,-17.85,-49.61,-49.25,0,*55
1513663353.53,1070,5.69,73226.8,-17.85,-49.39,-49.25,0,*50
1513663354.81,1071,5.69,73222.8,-17.85,-49.19,-49.19,0,*5C
1513663356.1,1072,5.69,73220.5,-17.85,-49.19,-49.11,0,*57
1513663357.32,1073,5.69,73222.8,-17.85,-48.97,-48.97,0,*5E
1513663358.57,1074,5.69,73218.8,-17.85,-49.25,-49.19,0,*56
1513663359.85,1075,5.69,73216.5,-17.85,-49.39,-49.47,0,*51
1513663361.13,1076,5.69,73218.5,-17.85,-49.47,-49.39,0,*52
1513663362.42,1077,5.69,73218.0,-17.85,-49.39,-49.39,0,*5A
1513663363.68,1078,5.69,73220.0,-17.85,-49.39,-49.25,0,*58
1513663364.96,1079,5.69,73216.8,-17.85,-49.47,-49.39,0,*5D
1513663366.21,1080,5.69,73216.0,-17.85,-49.61,-49.25,0,*52
1513663367.49,1081,5.69,73218.5,-17.85,-49.61,-49.47,0,*57
1513663368.77,1082,5.69,73218.8,-17.85,-49.61,-49.39,0,*5D
1513663370.04,1083,5.69,73220.0,-17.85,-49.61,-49.61,0,*51
1513663371.25,1084,5.69,73218.5,-17.87,-49.67,-49.67,0,*54
1513663372.51,1085,5.69,73224.0,-17.87,-49.39,-49.19,0,*57
1513663373.71,1086,5.69,73222.8,-17.87,-48.97,-48.97,0,*56
1513663374.96,1087,5.69,73220.0,-17.85,-49.11,-48.97,0,*5A
1513663376.21,1088,5.69,73218.8,-17.85,-48.97,-48.91,0,*5C
1513663377.48,1089,5.69,73218.5,-17.87,-49.39,-49.39,0,*59
1513663378.71,1090,5.69,73220.0,-17.87,-49.47,-49.25,0,*55
1513663380.0,1091,5.69,73214.0,-17.85,-49.39,-49.39,0,*52
1513663381.28,1092,5.69,73218.0,-17.85,-49.47,-49.39,0,*58
1513663382.54,1093,5.69,73218.8,-17.87,-49.19,-49.19,0,*52
1513663383.8,1094,5.69,73222.3,-17.85,-49.39,-49.25,0,*5A
1513663385.09,1095,5.69,73220.8,-17.85,-49.39,-49.39,0,*56
1513663386.37,1096,5.69,73224.0,-17.85,-49.19,-49.11,0,*5D
1513663387.63,1097,5.69,73224.3,-17.85,-49.11,-48.97,0,*5B
1513663388.88,1098,5.69,73220.8,-17.85,-48.97,-48.91,0,*5D
1513663390.17,1099,5.69,73220.8,-17.85,-49.19,-49.11,0,*52
1513663391.45,1100,5.69,73216.8,-17.85,-49.19,-49.19,0,*5B
1513663392.7,1101,5.69,73218.3,-17.85,-49.19,-48.97,0,*5D
1513663393.98,1102,5.69,73218.8,-17.85,-49.19,-49.19,0,*59
1513663395.27,1103,5.69,73220.8,-17.85,-49.19,-49.11,0,*50
1513663396.55,1104,5.69,73222.3,-17.85,-49.19,-48.91,0,*5E
1513663397.84,1105,5.69,73222.5,-17.85,-48.69,-48.69,0,*5E
1513663399.12,1106,5.69,73218.8,-17.85,-48.77,-48.77,0,*5D
1513663400.37,1107,5.69,73224.0,-17.85,-48.97,-48.91,0,*5A
1513663401.65,1108,5.69,73222.5,-17.85,-48.91,-48.91,0,*53
1513663402.93,1109,5.69,73222.0,-17.85,-49.11,-48.91,0,*5B
1513663404.15,1110,5.69,73220.8,-17.85,-48.97,-48.97,0,*5A
1513663405.41,1111,5.69,73226.3,-17.85,-48.97,-48.77,0,*55
1513663406.63,1112,5.69,73220.8,-17.85,-48.97,-48.97,0,*58
1513663407.92,1113,5.69,73222.5,-17.85,-48.77,-48.77,0,*59
1513663409.13,1114,5.69,73224.0,-17.83,-48.83,-48.83,0,*58
1513663410.41,1115,5.69,73226.3,-17.85,-48.69,-48.69,0,*5F
1513663411.68,1116,5.69,73228.3,-17.85,-48.69,-48.55,0,*53
1513663412.89,1117,5.69,73224.0,-17.83,-47.99,-47.99,0,*5B
1513663414.18,1118,5.69,73226.3,-17.79,-48.13,-47.93,0,*56
1513663415.42,1119,5.69,73226.3,-17.79,-48.21,-47.99,0,*5C
1513663416.66,1120,5.69,73222.0,-17.79,-48.41,-48.41,0,*5A
1513663417.9,1121,5.69,73212.5,-17.79,-48.83,-48.63,0,*55
1513663419.19,1122,5.69,73204.5,-17.79,-48.77,-48.77,0,*58
1513663420.42,1123,5.69,73206.0,-17.79,-48.97,-48.83,0,*5C
1513663421.64,1124,5.69,73204.8,-17.77,-49.05,-48.83,0,*5F
1513663422.85,1125,5.69,73210.5,-17.77,-48.97,-48.97,0,*51
1513663424.12,1126,5.69,73212.8,-17.77,-48.77,-48.77,0,*52
1513663425.34,1127,5.69,73212.0,-17.77,-48.55,-48.55,0,*53
1513663426.57,1128,5.75,73212.3,-17.77,-49.11,-48.97,0,*53
1513663427.79,1129,5.69,73210.0,-17.77,-49.33,-49.25,0,*5A
1513663429.02,1130,5.69,73212.5,-17.77,-49.47,-49.25,0,*51
1513663430.26,1131,5.69,73208.8,-17.79,-49.25,-49.25,0,*5A
1513663431.55,1132,5.69,73214.8,-17.75,-48.91,-48.77,0,*5D
1513663432.77,1133,5.69,73212.3,-17.77,-48.97,-48.83,0,*53
1513663433.98,1134,5.69,73210.3,-17.77,-49.05,-48.83,0,*5E
1513663435.2,1135,5.69,73214.5,-17.77,-49.25,-49.05,0,*52
1513663436.4,1136,5.69,73212.0,-17.77,-49.25,-48.97,0,*5B
1513663437.67,1137,5.69,73214.5,-17.77,-49.11,-49.11,0,*52
1513663438.92,1138,5.69,73218.0,-17.77,-49.33,-49.11,0,*5D
1513663440.16,1139,5.69,73220.8,-17.77,-49.47,-49.33,0,*5F
1513663441.37,1140,5.69,73220.3,-17.77,-48.83,-48.83,0,*52
1513663442.61,1141,5.69,73216.0,-17.77,-49.11,-48.97,0,*5C
1513663443.82,1142,5.69,73216.5,-17.77,-49.25,-49.05,0,*52
1513663445.09,1143,5.69,73212.3,-17.75,-49.39,-49.25,0,*5E
1513663446.33,1144,5.69,73218.0,-17.77,-49.47,-49.25,0,*52
1513663447.57,1145,5.69,73222.0,-17.77,-49.47,-49.25,0,*53
1513663448.8,1146,5.69,73224.0,-17.77,-49.47,-49.25,0,*50
1513663450.05,1147,5.69,73220.0,-17.77,-49.33,-49.11,0,*55
1513663451.32,1148,5.69,73220.0,-17.79,-49.47,-49.33,0,*57
1513663452.6,1149,5.69,73224.8,-17.79,-49.47,-49.47,0,*55
1513663453.87,1150,5.69,73224.0,-17.79,-49.53,-49.33,0,*5B
1513663455.11,1151,5.69,73222.8,-17.77,-49.25,-49.11,0,*55
1513663456.37,1152,5.69,73226.5,-17.79,-49.25,-49.11,0,*58
1513663457.64,1153,5.69,73226.3,-17.79,-49.25,-49.11,0,*59
1513663458.9,1154,5.75,73226.3,-17.79,-49.47,-49.25,0,*5D
1513663460.19,1155,5.69,73220.8,-17.79,-49.47,-49.47,0,*58
1513663461.43,1156,5.69,73220.8,-17.77,-49.33,-49.11,0,*55
1513663462.72,1157,5.69,73222.5,-17.79,-49.47,-49.47,0,*5A
1513663464.0,1158,5.69,73220.8,-17.79,-49.53,-49.47,0,*50
1513663465.24,1159,5.69,73222.5,-17.79,-49.33,-49.33,0,*54
1513663466.51,1160,5.69,73218.8,-17.79,-49.11,-49.05,0,*5B
1513663467.78,1161,5.69,73220.0,-17.79,-49.25,-49.11,0,*58
1513663469.04,1162,5.69,73220.3,-17.79,-49.47,-49.25,0,*58
1513663470.28,1163,5.69,73226.0,-17.79,-49.33,-49.25,0,*5A
1513663471.54,1164,5.69,73220.3,-17.79,-49.11,-48.83,0,*50
1513663472.81,1165,5.69,73220.0,-17.79,-49.47,-49.33,0,*58
1513663474.1,1166,5.69,73218.0,-17.79,-49.53,-49.47,0,*5D
1513663475.34,1167,5.69,73218.3,-17.79,-49.33,-49.33,0,*59
1513663476.61,1168,5.69,73220.8,-17.79,-49.47,-49.33,0,*55
1513663477.86,1169,5.69,73220.8,-17.83,-49.61,-49.61,0,*52
1513663479.12,1170,5.69,73220.8,-17.79,-49.33,-49.47,0,*5C
1513663480.39,1171,5.69,73222.3,-17.83,-49.53,-49.39,0,*57
1513663481.62,1172,5.69,73222.8,-17.79,-49.75,-49.67,0,*5E
1513663482.88,1173,5.69,73222.8,-17.83,-49.61,-49.39,0,*54
1513663484.12,1174,5.69,73222.5,-17.83,-49.53,-49.33,0,*58
1513663485.36,1175,5.69,73224.3,-17.83,-49.19,-49.05,0,*52
1513663486.6,1176,5.69,73224.0,-17.83,-49.11,-49.05,0,*59
1513663487.84,1177,5.69,73222.3,-17.79,-49.33,-49.25,0,*5F
1513663489.09,1178,5.69,73218.8,-17.83,-49.39,-49.33,0,*58
1513663490.33,1179,5.69,73222.5,-17.79,-49.05,-49.05,0,*56
1513663491.59,1180,5.69,73222.5,-17.79,-49.11,-48.97,0,*5F
1513663492.83,1181,5.69,73226.3,-17.83,-49.53,-49.33,0,*52
1513663494.09,1182,5.69,73226.5,-17.83,-49.53,-49.39,0,*5B
1513663495.33,1183,5.69,73224.8,-17.83,-49.53,-49.33,0,*50
1513663496.59,1184,5.69,73226.5,-17.79,-49.11,-48.97,0,*5B
1513663497.83,1185,5.69,73228.0,-17.83,-49.33,-49.19,0,*58
1513663499.1,1186,5.69,73230.0,-17.79,-49.25,-49.11,0,*51
1513663500.35,1187,5.69,73228.5,-17.79,-49.11,-48.97,0,*58
1513663501.59,1188,5.69,73230.8,-17.79,-49.05,-48.97,0,*52
1513663502.82,1189,5.69,73230.5,-17.79,-48.97,-48.97,0,*59
1513663504.11,1190,5.69,73230.0,-17.79,-48.77,-48.69,0,*5E
1513663505.37,1191,5.69,73232.5,-17.79,-48.83,-48.77,0,*5B
1513663506.64,1192,5.69,73228.8,-17.79,-48.83,-48.77,0,*58
1513663507.85,1193,5.69,73226.0,-17.83,-49.05,-49.05,0,*57
1513663509.08,1194,5.69,73224.8,-17.79,-48.97,-48.97,0,*55
1513663510.32,1195,5.69,73224.5,-17.79,-49.05,-48.97,0,*5E
1513663511.58,1196,5.69,73226.3,-17.83,-48.91,-48.69,0,*55
1513663512.82,1197,5.69,73224.3,-17.79,-48.63,-48.63,0,*56
1513663514.06,1198,5.69,73222.0,-17.79,-48.97,-48.83,0,*5C
1513663515.3,1199,5.69,73216.3,-17.77,-49.11,-49.05,0,*53
1513663516.54,1200,5.69,73216.5,-17.77,-49.25,-49.11,0,*52
1513663517.78,1201,5.69,73216.5,-17.77,-49.11,-48.97,0,*5B
1513663519.01,1202,5.69,73218.3,-17.77,-49.47,-49.25,0,*53
1513663520.28,1203,5.69,73220.0,-17.79,-49.11,-49.05,0,*5D
1513663521.54,1204,5.69,73220.8,-17.79,-49.47,-49.25,0,*5B
1513663522.83,1205,5.69,73220.5,-17.79,-49.47,-49.11,0,*5D
1513663524.13,1206,5.69,73220.3,-17.79,-49.11,-49.11,0,*5D
1513663525.4,1207,5.69,73222.8,-17.79,-49.47,-49.33,0,*5F
1513663526.64,1208,5.75,73226.5,-17.79,-49.33,-49.25,0,*54
1513663527.9,1209,5.69,73222.8,-17.79,-49.25,-49.11,0,*55
1513663529.17,1210,5.69,73226.5,-17.79,-49.47,-49.33,0,*59
1513663530.45,1211,5.69,73222.0,-17.79,-49.47,-49.47,0,*5B
1513663531.71,1212,5.69,73224.0,-17.79,-49.47,-49.25,0,*5C
1513663532.97,1213,5.69,73226.8,-17.77,-49.47,-49.47,0,*57
1513663534.26,1214,5.69,73226.8,-17.79,-49.53,-49.53,0,*5E
1513663535.51,1215,5.69,73224.0,-17.83,-49.61,-49.61,0,*5A
1513663536.79,1216,5.69,73230.0,-17.79,-49.53,-49.47,0,*59
1513663538.05,1217,5.69,73224.3,-17.83,-49.61,-49.39,0,*55
1513663539.32,1218,5.69,73222.5,-17.79,-49.47,-49.25,0,*56
1513663540.59,1219,5.69,73226.0,-17.79,-49.33,-49.11,0,*53
1513663541.83,1220,5.69,73228.0,-17.83,-49.19,-49.05,0,*51
1513663543.07,1221,5.69,73224.8,-17.83,-49.53,-49.33,0,*5B
1513663544.35,1222,5.69,73226.3,-17.79,-49.53,-49.47,0,*5E
1513663545.61,1223,5.69,73224.5,-17.83,-49.61,-49.39,0,*52
1513663546.88,1224,5.69,73220.0,-17.83,-49.53,-49.39,0,*54
1513663548.13,1225,5.69,73228.3,-17.83,-49.61,-49.53,0,*58
1513663549.37,1226,5.69,73228.8,-17.83,-49.53,-49.33,0,*5C
1513663550.66,1227,5.69,73230.5,-17.79,-49.53,-49.47,0,*5B
1513663551.9,1228,5.69,73230.0,-17.83,-49.53,-49.33,0,*52
1513663553.14,1229,5.69,73224.0,-17.83,-49.11,-49.05,0,*50
1513663554.38,1230,5.69,73222.5,-17.83,-49.11,-49.05,0,*58
1513663555.62,1231,5.69,73222.8,-17.83,-49.19,-49.05,0,*51
1513663556.88,1232,5.69,73222.0,-17.79,-49.11,-48.97,0,*55
1513663558.09,1233,5.69,73228.0,-17.83,-49.33,-49.05,0,*5B
1513663559.35,1234,5.69,73224.0,-17.83,-49.53,-49.19,0,*57
1513663560.63,1235,5.69,73226.3,-17.79,-49.47,-49.47,0,*5D
1513663561.9,1236,5.69,73226.8,-17.83,-49.53,-49.39,0,*57
1513663563.17,1237,5.69,73226.5,-17.85,-49.61,-49.61,0,*5C
1513663564.42,1238,5.75,73228.5,-17.85,-49.47,-49.25,0,*57
1513663565.7,1239,5.69,73224.0,-17.85,-49.47,-49.47,0,*52
1513663566.98,1240,5.69,73226.0,-17.85,-49.47,-49.47,0,*5C
1513663568.26,1241,5.69,73224.0,-17.85,-49.47,-49.39,0,*54
1513663569.53,1242,5.69,73222.0,-17.85,-49.61,-49.61,0,*5E
1513663570.79,1243,5.69,73222.8,-17.83,-49.53,-49.53,0,*59
1513663572.04,1244,5.69,73226.0,-17.85,-49.67,-49.61,0,*5E
1513663573.3,1245,5.69,73228.0,-17.85,-49.67,-49.47,0,*5B
1513663574.58,1246,5.69,73230.0,-17.85,-49.39,-49.19,0,*58
1513663575.86,1247,5.69,73228.0,-17.85,-49.39,-49.19,0,*59
1513663577.11,1248,5.69,73226.8,-17.85,-49.19,-48.97,0,*53
1513663578.39,1249,5.69,73224.5,-17.85,-49.47,-49.19,0,*5E
1513663579.64,1250,5.69,73222.5,-17.85,-49.61,-49.25,0,*5D
1513663580.89,1251,5.69,73224.3,-17.85,-49.47,-49.25,0,*58
1513663582.15,1252,5.69,73224.5,-17.85,-49.67,-49.61,0,*59
1513663583.4,1253,5.69,73222.3,-17.85,-49.39,-49.25,0,*53
1513663584.68,1254,5.69,73226.3,-17.85,-49.61,-49.39,0,*54
1513663585.94,1255,5.69,73226.8,-17.85,-49.67,-49.61,0,*5E
1513663587.21,1256,5.69,73226.3,-17.85,-49.47,-49.47,0,*5B
1513663588.5,1257,5.69,73228.5,-17.85,-49.39,-49.19,0,*58
1513663589.78,1258,5.69,73224.3,-17.85,-49.39,-49.19,0,*57
1513663591.05,1259,5.69,73226.0,-17.85,-49.61,-49.47,0,*50
1513663592.33,1260,5.69,73230.0,-17.85,-49.61,-49.47,0,*5A
1513663593.61,1261,5.69,73228.8,-17.85,-49.61,-49.39,0,*52
1513663594.89,1262,5.69,73230.5,-17.85,-49.61,-49.39,0,*51
1513663596.16,1263,5.69,73232.5,-17.85,-49.61,-49.47,0,*59
1513663597.44,1264,5.69,73228.5,-17.85,-49.39,-49.19,0,*58
1513663598.72,1265,5.69,73224.5,-17.85,-49.61,-49.47,0,*5F
1513663599.99,1266,5.69,73226.3,-17.85,-49.61,-49.61,0,*58
1513663601.27,1267,5.69,73228.5,-17.85,-49.47,-49.39,0,*50
1513663602.55,1268,5.69,73230.5,-17.85,-49.39,-49.19,0,*54
1513663603.83,1269,5.69,73228.3,-17.85,-49.61,-49.39,0,*5A
1513663605.09,1270,5.69,73226.8,-17.85,-49.25,-49.11,0,*58
1513663606.38,1271,5.69,73226.8,-17.85,-49.11,-49.11,0,*5E
1513663607.65,1272,5.69,73228.8,-17.85,-49.61,-49.61,0,*5D
1513663608.92,1273,5.69,73230.3,-17.85,-49.61,-49.47,0,*58
1513663610.21,1274,5.69,73230.3,-17.85,-49.47,-49.39,0,*52
1513663611.46,1275,5.69,73230.0,-17.85,-49.67,-49.61,0,*5C
1513663612.69,1276,5.69,73232.8,-17.85,-49.67,-49.67,0,*59
1513663613.95,1277,5.69,73230.3,-17.87,-49.47,-49.39,0,*53
1513663615.18,1278,5.69,73230.5,-17.87,-49.47,-49.25,0,*51
1513663616.47,1279,5.75,73232.8,-17.85,-49.39,-49.19,0,*54
1513663617.75,1280,5.69,73234.0,-17.85,-49.39,-49.39,0,*50
1513663619.01,1281,5.69,73230.8,-17.85,-49.47,-49.25,0,*55
1513663620.28,1282,5.69,73230.8,-17.85,-49.61,-49.47,0,*56
1513663621.55,1283,5.69,73228.8,-17.85,-49.61,-49.61,0,*53
1513663622.83,1284,5.69,73230.8,-17.85,-49.47,-49.47,0,*54
1513663624.08,1285,5.69,73230.5,-17.85,-49.25,-49.19,0,*5A
1513663625.31,1286,5.69,73230.3,-17.87,-49.11,-48.97,0,*5B
1513663626.54,1287,5.69,73232.3,-17.87,-49.25,-49.19,0,*5A
1513663627.78,1288,5.69,73234.0,-17.87,-49.39,-49.25,0,*57
1513663629.03,1289,5.69,73232.8,-17.87,-49.61,-49.61,0,*5B
1513663630.27,1290,5.69,73230.8,-17.87,-49.39,-49.25,0,*5E
1513663631.52,1291,5.69,73232.3,-17.89,-49.47,-49.25,0,*58
1513663632.78,1292,5.69,73232.0,-17.87,-49.61,-49.47,0,*55
1513663634.01,1293,5.69,73228.8,-17.89,-49.67,-49.67,0,*5E
1513663635.26,1294,5.69,73230.5,-17.87,-49.61,-49.61,0,*57
1513663636.51,1295,5.69,73232.8,-17.87,-49.61,-49.61,0,*56
1513663637.77,1296,5.69,73234.0,-17.87,-49.61,-49.39,0,*58
1513663639.01,1297,5.69,73234.5,-17.87,-49.39,-49.25,0,*59
1513663640.27,1298,5.69,73232.3,-17.89,-49.67,-49.47,0,*57
1513663641.53,1299,5.69,73234.0,-17.87,-49.47,-49.39,0,*53
1513663642.78,1300,5.75,73236.0,-17.87,-49.61,-49.47,0,*5F
1513663644.04,1301,5.69,73232.8,-17.87,-49.39,-49.19,0,*58
1513663645.3,1302,5.69,73232.5,-17.89,-49.67,-49.47,0,*55
1513663646.57,1303,5.69,73232.5,-17.89,-49.47,-49.33,0,*55
1513663647.82,1304,5.69,73234.8,-17.89,-49.25,-49.19,0,*5E
1513663649.05,1305,5.69,73232.3,-17.87,-48.97,-48.91,0,*58
1513663650.29,1306,5.69,73234.0,-17.89,-49.05,-49.05,0,*53
1513663651.57,1307,5.69,73232.8,-17.89,-49.53,-49.47,0,*57
1513663652.85,1308,5.69,73232.0,-17.89,-49.53,-49.47,0,*58
1513663654.08,1309,5.69,73234.3,-17.89,-49.67,-49.67,0,*5C
1513663655.32,1310,5.69,73232.5,-17.89,-49.33,-49.25,0,*53
1513663656.55,1311,5.69,73234.5,-17.89,-49.33,-49.25,0,*52
1513663657.79,1312,5.69,73232.0,-17.89,-49.05,-49.05,0,*56
1513663659.02,1313,5.69,73234.8,-17.89,-49.25,-49.25,0,*57
1513663660.3,1314,5.69,73232.8,-17.89,-49.47,-49.47,0,*50
1513663661.58,1315,5.69,73230.0,-17.89,-49.47,-49.47,0,*51
1513663662.86,1316,5.69,73230.8,-17.89,-49.47,-49.47,0,*52
1513663664.12,1317,5.75,73236.3,-17.89,-49.67,-49.53,0,*54
1513663665.35,1318,5.69,73232.0,-17.89,-49.25,-49.25,0,*5C
1513663666.63,1319,5.69,73234.0,-17.89,-49.53,-49.47,0,*58
1513663667.89,1320,5.69,73232.5,-17.89,-49.53,-49.33,0,*51
1513663669.15,1321,5.69,73230.3,-17.89,-49.25,-49.19,0,*59
1513663670.4,1322,5.69,73234.8,-17.89,-49.33,-49.19,0,*5D
1513663671.64,1323,5.69,73232.5,-17.87,-49.39,-49.25,0,*57
1513663672.9,1324,5.69,73232.5,-17.89,-49.33,-49.19,0,*5B
1513663674.13,1325,5.69,73236.0,-17.87,-49.11,-48.97,0,*53
1513663675.37,1326,5.69,73232.8,-17.89,-49.33,-49.33,0,*51
1513663676.64,1327,5.69,73232.8,-17.87,-49.19,-49.11,0,*56
1513663677.92,1328,5.69,73238.3,-17.89,-49.53,-49.47,0,*5A
1513663679.19,1329,5.75,73236.3,-17.89,-49.47,-49.33,0,*5D
1513663680.47,1330,5.69,73236.8,-17.89,-49.47,-49.47,0,*56
1513663681.72,1331,5.69,73234.0,-17.89,-49.47,-49.25,0,*53
1513663682.98,1332,5.69,73236.8,-17.89,-49.33,-49.19,0,*5C
1513663684.25,1333,5.69,73236.3,-17.89,-49.53,-49.33,0,*53
1513663685.48,1334,5.69,73234.5,-17.89,-49.25,-49.33,0,*55
1513663686.76,1335,5.75,73234.5,-17.89,-49.47,-49.47,0,*53
1513663688.02,1336,5.75,73234.3,-17.93,-49.53,-49.67,0,*5C
1513663689.26,1337,5.69,73232.5,-17.93,-49.33,-49.33,0,*5A
1513663690.49,1338,5.69,73228.5,-17.93,-49.25,-49.25,0,*55
1513663691.75,1339,5.69,73234.8,-17.89,-49.47,-49.33,0,*5C
1513663693.03,1340,5.69,73232.8,-17.89,-49.53,-49.47,0,*54
1513663694.3,1341,5.69,73232.5,-17.89,-49.53,-49.33,0,*56
1513663695.56,1342,5.69,73232.5,-17.89,-49.33,-49.47,0,*50
1513663696.81,1343,5.69,73234.5,-17.95,-49.53,-49.61,0,*5E
1513663698.09,1344,5.69,73232.5,-17.93,-49.19,-49.19,0,*5E
1513663699.33,1345,5.69,73236.8,-17.93,-49.25,-49.25,0,*5F
1513663700.61,1346,5.69,73234.0,-17.93,-49.19,-49.19,0,*5C
1513663701.84,1347,5.69,73232.5,-17.93,-49.33,-49.25,0,*5A
1513663703.06,1348,5.69,73232.0,-17.95,-49.33,-49.33,0,*54
1513663704.32,1349,5.69,73232.8,-17.89,-49.47,-49.33,0,*5B
1513663705.6,1350,5.69,73234.0,-17.93,-49.53,-49.47,0,*5E
1513663706.84,1351,5.69,73238.3,-17.93,-49.67,-49.67,0,*5A
1513663708.1,1352,5.69,73236.3,-17.93,-49.47,-49.33,0,*5A
1513663709.38,1353,5.69,73234.5,-17.93,-49.47,-49.47,0,*58
1513663710.59,1354,5.69,73232.8,-17.95,-49.67,-49.67,0,*59
1513663711.84,1355,5.69,73234.8,-17.93,-49.67,-49.61,0,*58